Newport, Oregon, United States (97365)
Lat: 44.64N, Lon: 124.05W
Wx Zone: ORZ002
Local Info
Past Weather Observations for Today

NOTE: This archive is for the closest National Weather Service station to Newport. Information may differ from the station used for current weather conditions.

Click here for Long-term Archive

Time Weather Temperature Dewpoint Humidity Pressure Winds Precip Visibility
13:35
Partly Cloudy
64°F / 18°C 55°F / 13°C 73% 30.09 in
(1019 mb)
SSE 9.2 mph
(SSE 15 kph)
- 7SM
13:15
Clear
64°F / 18°C 55°F / 13°C 73% 30.09 in
(1019 mb)
SW 12.7 mph
(SW 20 kph)
- 10SM
12:55
Partly Cloudy
64°F / 18°C 55°F / 13°C 73% 30.09 in
(1019 mb)
SW 10.4 mph
(SW 17 kph)
- 7SM
12:35
Partly Cloudy
66°F / 19°C 55°F / 13°C 68% 30.09 in
(1019 mb)
SW 9.2 mph
(SW 15 kph)
- 7SM
12:15
Partly Cloudy
66°F / 19°C 55°F / 13°C 68% 30.09 in
(1019 mb)
SW 11.5 mph
(SW 19 kph)
- 7SM
11:55
Partly Cloudy
64°F / 18°C 55°F / 13°C 73% 30.09 in
(1019 mb)
SW 10.4 mph
(SW 17 kph)
- 7SM
11:35
Partly Cloudy
64°F / 18°C 55°F / 13°C 73% 30.09 in
(1019 mb)
SW 11.5 mph
(SW 19 kph)
- 7SM
11:15
Partly Cloudy
64°F / 18°C 55°F / 13°C 73% 30.09 in
(1019 mb)
SW 9.2 mph
(SW 15 kph)
- 7SM
10:55
Partly Cloudy
64°F / 18°C 55°F / 13°C 73% 30.09 in
(1019 mb)
SW 9.2 mph
(SW 15 kph)
- 7SM
10:35
Partly Cloudy
63°F / 17°C 55°F / 13°C 77% 30.09 in
(1019 mb)
SW 6.9 mph
(SW 11 kph)
- 7SM
10:15
Mostly Cloudy
Hazy
63°F / 17°C 55°F / 13°C 77% 30.09 in
(1019 mb)
SW 5.8 mph
(SW 9 kph)
- 5SM
09:55
Partly Cloudy
Hazy
63°F / 17°C 55°F / 13°C 77% 30.09 in
(1019 mb)
SW 5.8 mph
(SW 9 kph)
- 4SM
09:35
Mostly Cloudy
63°F / 17°C 57°F / 14°C 83% 30.09 in
(1019 mb)
S 5.8 mph
(S 9 kph)
- 10SM
09:15
Mostly Cloudy
61°F / 16°C 57°F / 14°C 88% 30.09 in
(1019 mb)
SSE 4.6 mph
(SSE 7 kph)
- 10SM
08:55
Mostly Cloudy
61°F / 16°C 55°F / 13°C 83% 30.09 in
(1019 mb)
S 5.8 mph
(S 9 kph)
- 10SM
08:35
Mostly Cloudy
Fog And Mist
61°F / 16°C 57°F / 14°C 88% 30.09 in
(1019 mb)
S 5.8 mph
(S 9 kph)
- 5SM
08:15
Overcast
61°F / 16°C 55°F / 13°C 83% 30.09 in
(1019 mb)
SSE 4.6 mph
(SSE 7 kph)
- 10SM
07:55
Fair
61°F / 16°C 55°F / 13°C 83% 30.09 in
(1019 mb)
S 3.5 mph
(S 6 kph)
- 10SM
07:35
Overcast
61°F / 16°C 55°F / 13°C 83% 30.09 in
(1019 mb)
S 3.5 mph
(S 6 kph)
- 10SM
07:15
Overcast
61°F / 16°C 55°F / 13°C 83% 30.09 in
(1019 mb)
SE 3.5 mph
(SE 6 kph)
- 10SM
06:55
Overcast
59°F / 15°C 55°F / 13°C 88% 30.09 in
(1019 mb)
Calm - 10SM
06:35
Overcast
59°F / 15°C 55°F / 13°C 88% 30.09 in
(1019 mb)
SE 4.6 mph
(SE 7 kph)
- 10SM
06:15
Overcast
59°F / 15°C 55°F / 13°C 88% 30.09 in
(1019 mb)
Calm - 10SM
05:55
Overcast
59°F / 15°C 55°F / 13°C 88% 30.09 in
(1019 mb)
SE 4.6 mph
(SE 7 kph)
- 10SM
05:35
Mostly Cloudy
57°F / 14°C 55°F / 13°C 94% 30.09 in
(1019 mb)
SSE 4.6 mph
(SSE 7 kph)
- 10SM
05:15
Mostly Cloudy
55°F / 13°C 54°F / 12°C 94% 30.09 in
(1019 mb)
SSE 4.6 mph
(SSE 7 kph)
- 10SM
04:55
Clear
55°F / 13°C 54°F / 12°C 94% 30.09 in
(1019 mb)
SSE 3.5 mph
(SSE 6 kph)
- 10SM
04:35
Clear
55°F / 13°C 54°F / 12°C 94% 30.09 in
(1019 mb)
SE 4.6 mph
(SE 7 kph)
- 10SM
04:15
Clear
55°F / 13°C 54°F / 12°C 94% 30.09 in
(1019 mb)
SSE 4.6 mph
(SSE 7 kph)
- 10SM
03:55
Partly Cloudy
55°F / 13°C 54°F / 12°C 94% 30.09 in
(1019 mb)
SSE 3.5 mph
(SSE 6 kph)
- 10SM
03:35
Clear
57°F / 14°C 55°F / 13°C 94% 30.09 in
(1019 mb)
SSE 3.5 mph
(SSE 6 kph)
- 10SM
03:15
Clear
57°F / 14°C 55°F / 13°C 94% 30.09 in
(1019 mb)
SSE 4.6 mph
(SSE 7 kph)
- 10SM
02:55
Clear
57°F / 14°C 55°F / 13°C 94% 30.09 in
(1019 mb)
SSE 4.6 mph
(SSE 7 kph)
- 10SM
02:35
Partly Cloudy
59°F / 15°C 55°F / 13°C 88% 30.09 in
(1019 mb)
S 3.5 mph
(S 6 kph)
- 10SM
02:15
Partly Cloudy
59°F / 15°C 57°F / 14°C 94% 30.09 in
(1019 mb)
SSE 5.8 mph
(SSE 9 kph)
- 10SM
01:55
Partly Cloudy
59°F / 15°C 57°F / 14°C 94% 30.09 in
(1019 mb)
SSE 5.8 mph
(SSE 9 kph)
- 10SM
01:35
Partly Cloudy
59°F / 15°C 57°F / 14°C 94% 30.09 in
(1019 mb)
S 5.8 mph
(S 9 kph)
- 10SM
01:15
Partly Cloudy
59°F / 15°C 57°F / 14°C 94% 30.09 in
(1019 mb)
S 5.8 mph
(S 9 kph)
- 7SM
00:55
Partly Cloudy
59°F / 15°C 57°F / 14°C 94% 30.12 in
(1020 mb)
S 5.8 mph
(S 9 kph)
- 7SM
00:35
Clear
59°F / 15°C 57°F / 14°C 94% 30.12 in
(1020 mb)
S 5.8 mph
(S 9 kph)
- 7SM
00:15
Partly Cloudy
59°F / 15°C 57°F / 14°C 94% 30.12 in
(1020 mb)
S 4.6 mph
(S 7 kph)
- 7SM
Time Weather Temperature Dewpoint Humidity Pressure Winds Precip Visibility


Weather for websites

WeatherForYou.com, LLC is not responsible for any damages or problems caused by this service. Current weather conditions are obtained from the closest station including government and personal stations which may have varying degrees of accuracy. Weather forecasts are derived from the NOAA NDFD. Like all things, this site belongs to Jesus Christ... He just trusts us to maintain it. If you have any questions or comments email webmaster@weatherforyou.com

Copyright © 2015, WeatherForYou.com LLC. All rights reserved.